Terug naar catalogus

TIANQI-12

ActiefCommunicatieVLEO
NORAD 48426·PAYLOAD·🇨🇳 China

Gelanceerd May 6, 2021 vanaf Xichang Satellite Launch Center

Loading…

Volgende Passages (komende 24 uur)

TLE

VersSource: Space-Track

Epoch: Sep 14, 2026, 22:52 UTC

1 48426U 21039D   26257.95322227  .00005502  00000-0  30734-3 0  9995
2 48426  34.9975 130.2472 0003995   0.9601 359.1117 15.12895090293825

Volg TIANQI-12 in realtime met AllMySat

Download on the App Store